星链-36691(STARLINK-36691)

导读

STARLINK-36691是美国SpaceX公司星链星座中的一颗卫星,于2026年2月11日发射入轨。星链项目旨在构建全球低轨卫星互联网星座,为全球偏远地区、灾害现场等场景提供高速低延迟宽带网络服务。这颗卫星加入后,进一步扩充了星链星座规模,提升了全球网络覆盖容量与服务稳定性,助力星链实现直连手机等拓展服务的全球普及,推动天地一体化网络建设。

基本信息
目录编号:
67735
目录名称:
STARLINK-36691
国际标识:
2026-026Q
轨道中心:
EARTH
卫星名称:
星链-36691
卫星全名:
星链-36691(STARLINK-36691)
卫星状态:
在轨 (已飞行205 天)
发射日期:
2026-02-11 UTC
国别 :
美国 (US)
星等 :
--
轨道信息
数据来源 国际轨道数据
星历时间: 2026-09-04T00:11:47+0800
11小时前
查看轨道信息
半长轴: 6843.677km
偏心率: 0.0001256
轨道倾角: 97.285°
近地点辐角 80.230°
升交点赤经 298.771°
平近点角 279.909°
近地点: 464.68km
远地点: 466.4km
周期: 93.906分钟
每日圈数: 15.334464
详细信息
固有亮度:
5
最大亮度:
2.5
卫星平台:
Starlink V1.0
覆盖范围:
全球
运营商:
太空探索技术公司
运营商所在国:
美国
制造商(研发单位):
太空探索技术公司
制造商所在国:
美国
使用方式:
暂无
卫星简介
Starlink 计划是 SpaceX 推出的全球卫星互联网项目,通过发射低轨道卫星,为全球尤其是偏远地区提供高速、低延迟的互联网服务。自 2019 年起,Starlink 已部署数千颗卫星,旨在缩小全球数字鸿沟,推动互联网普及。该项目还为军事、航空等行业提供通信支持,带来广泛经济效益。
2D轨道图
3D轨道图
轨道高度分析图
轨道倾角分析图
轨道综合分析图
查看轨道综合分析图
交会数据列表
事件ID 空间交会对象 最接近时刻(TCA) 交会距离 交会风险概率(CRP) 交会风险指数(CRI) 操作
CDM_260905-075706-223506-773521
2026-09-05T
07:57:54+0000
2.355 km
极远距离
1.9306E-6 低风险 0.41
CDM_260828-181306-609106-773521
2026-08-28T
18:13:40+0000
2.494 km
极远距离
1.501628E-6 低风险 0.39
CDM_260905-044604-859606-773521
2026-09-05T
04:46:07+0000
2.639 km
极远距离
1.328851E-6 低风险 0.37
CDM_260903-230406-418306-773521
2026-09-03T
23:04:21+0000
2.869 km
极远距离
9.682992E-7 极低风险 0.35